FDX3478 LLBG-EPKT

Flight info

Callsign FDX3478
Flight time N/A
Altitude 36000
Route SUVAS N128 TEZAK L324 SAFTA DCT TOMBI UA16 AYT UQ23 OSVEL UL619 MAKOL L619 BALIK/N0452F380 DCT KARIL DCT KEKED DCT RAZEC DCT LENOV
Aircraft B738/M-SDE2E3FGHIRWXY/LB1

Departure

Time 2026-05-04 18:43
Airport Ben Gurion International Airport (LLBG)

Arrival

Time N/A
Airport Katowice Wojciech Korfanty International Airport (EPKT)
Time Latitude Longitude Altitude Speed Heading
2026-05-04 18:11 31.99481 34.89863 119 ft 0 kts 243°
2026-05-04 18:32 31.99481 34.89864 119 ft 1 kts 243°
2026-05-04 18:32 31.99491 34.89888 114 ft 4 kts 242°
2026-05-04 18:33 31.99504 34.89915 116 ft 3 kts 239°
2026-05-04 18:33 31.99511 34.89934 116 ft 4 kts 298°
2026-05-04 18:33 31.99494 34.89946 116 ft 4 kts 345°
2026-05-04 18:33 31.99498 34.89945 116 ft 4 kts 347°
2026-05-04 18:34 31.99524 34.89939 115 ft 4 kts 347°
2026-05-04 18:34 31.99533 34.89936 117 ft 0 kts 346°
2026-05-04 18:36 31.99543 34.89933 118 ft 5 kts 344°
2026-05-04 18:36 31.99598 34.89915 117 ft 11 kts 345°
2026-05-04 18:36 31.99678 34.89885 116 ft 13 kts 335°
2026-05-04 18:36 31.99769 34.89830 117 ft 15 kts 333°
2026-05-04 18:37 31.99862 34.89774 117 ft 15 kts 333°
2026-05-04 18:37 31.99951 34.89721 116 ft 14 kts 333°
2026-05-04 18:37 32.00036 34.89670 117 ft 13 kts 333°
2026-05-04 18:37 32.00118 34.89621 116 ft 13 kts 333°
2026-05-04 18:38 32.00199 34.89565 119 ft 15 kts 316°
2026-05-04 18:38 32.00257 34.89468 115 ft 14 kts 301°
2026-05-04 18:38 32.00308 34.89371 118 ft 14 kts 301°
2026-05-04 18:38 32.00358 34.89275 115 ft 15 kts 302°
2026-05-04 18:39 32.00422 34.89152 117 ft 20 kts 301°
2026-05-04 18:39 32.00500 34.88999 118 ft 15 kts 306°
2026-05-04 18:39 32.00600 34.89009 119 ft 17 kts 29°
2026-05-04 18:39 32.00710 34.89080 118 ft 19 kts 28°
2026-05-04 18:40 32.00830 34.89158 118 ft 21 kts 28°
2026-05-04 18:40 32.00955 34.89239 118 ft 20 kts 28°
2026-05-04 18:40 32.01075 34.89317 117 ft 19 kts 28°
2026-05-04 18:40 32.01192 34.89392 117 ft 19 kts 28°
2026-05-04 18:41 32.01305 34.89465 119 ft 18 kts 28°
2026-05-04 18:41 32.01414 34.89535 119 ft 18 kts 28°
2026-05-04 18:41 32.01520 34.89604 116 ft 17 kts 29°
2026-05-04 18:41 32.01621 34.89669 118 ft 16 kts 28°
2026-05-04 18:42 32.01720 34.89730 115 ft 16 kts 28°
2026-05-04 18:42 32.01817 34.89757 116 ft 15 kts 322°
2026-05-04 18:42 32.01829 34.89627 115 ft 29 kts 259°
2026-05-04 18:42 32.01747 34.89096 114 ft 101 kts 259°
2026-05-04 18:43 32.01590 34.88041 141 ft 157 kts 261°
2026-05-04 18:43 32.01402 34.86729 815 ft 160 kts 262°
2026-05-04 18:43 32.01202 34.85460 1790 ft 153 kts 262°
2026-05-04 18:43 32.01032 34.84264 2684 ft 148 kts 262°
2026-05-04 18:44 32.00827 34.82982 2999 ft 176 kts 259°
2026-05-04 18:44 32.00737 34.82494 3117 ft 185 kts 259°
2026-05-04 18:44 32.00237 34.79787 3584 ft 217 kts 258°
2026-05-04 18:44 31.99831 34.78038 4075 ft 225 kts 255°
2026-05-04 18:45 31.99369 34.76250 4555 ft 236 kts 255°
2026-05-04 18:45 31.99320 34.74289 4983 ft 248 kts 284°
2026-05-04 18:45 31.99899 34.72365 5846 ft 248 kts 288°
2026-05-04 18:45 32.00508 34.70468 6774 ft 248 kts 287°
2026-05-04 18:46 32.01112 34.68553 7517 ft 252 kts 287°
2026-05-04 18:46 32.01720 34.66612 7896 ft 253 kts 287°
2026-05-04 18:46 32.02329 34.64659 7986 ft 254 kts 287°
2026-05-04 18:46 32.02754 34.62653 7999 ft 252 kts 274°
2026-05-04 18:47 32.02869 34.60583 8008 ft 254 kts 271°
2026-05-04 18:47 32.02953 34.58497 8015 ft 255 kts 271°
2026-05-04 18:47 32.03048 34.56406 8000 ft 256 kts 271°
2026-05-04 18:47 32.03152 34.54311 8001 ft 256 kts 272°
2026-05-04 18:48 32.03260 34.52219 8003 ft 255 kts 272°
2026-05-04 18:48 32.03369 34.50124 8313 ft 258 kts 272°
2026-05-04 18:48 32.03478 34.48038 9154 ft 258 kts 272°
2026-05-04 18:48 32.03589 34.45928 10035 ft 258 kts 272°
2026-05-04 18:49 32.03703 34.43780 10521 ft 272 kts 273°
2026-05-04 18:49 32.03834 34.41457 10687 ft 296 kts 273°
2026-05-04 18:49 32.03979 34.38950 10864 ft 317 kts 273°
2026-05-04 18:49 32.04133 34.36286 11232 ft 331 kts 273°
2026-05-04 18:50 32.04290 34.33567 11916 ft 333 kts 273°
2026-05-04 18:50 32.04445 34.30844 12571 ft 334 kts 273°
2026-05-04 18:50 32.04600 34.28115 12877 ft 334 kts 273°
2026-05-04 18:50 32.04815 34.25399 12888 ft 334 kts 279°
2026-05-04 18:51 32.05396 34.22731 12901 ft 337 kts 286°
2026-05-04 18:51 32.06288 34.20164 12895 ft 340 kts 295°
2026-05-04 18:51 32.07480 34.17748 12937 ft 344 kts 298°
2026-05-04 18:51 32.08727 34.15331 13543 ft 346 kts 298°
2026-05-04 18:52 32.09976 34.12917 14335 ft 344 kts 297°
2026-05-04 18:52 32.11216 34.10503 15063 ft 344 kts 297°
2026-05-04 18:52 32.12452 34.08081 15719 ft 345 kts 297°
2026-05-04 18:52 32.13688 34.05648 16348 ft 347 kts 296°
2026-05-04 18:53 32.14932 34.03192 16977 ft 349 kts 296°
2026-05-04 18:53 32.16179 34.00728 17595 ft 351 kts 296°
2026-05-04 18:53 32.17478 33.98277 18204 ft 354 kts 298°
2026-05-04 18:53 32.18887 33.95875 18736 ft 357 kts 300°
2026-05-04 18:54 32.19845 33.94291 19064 ft 359 kts 300°
2026-05-04 18:54 32.21311 33.91888 19542 ft 362 kts 300°
2026-05-04 18:54 32.22788 33.89470 20032 ft 364 kts 300°
2026-05-04 18:54 32.24757 33.86234 20681 ft 367 kts 299°
2026-05-04 18:55 32.26248 33.83773 21144 ft 370 kts 299°
2026-05-04 18:55 32.28762 33.79607 21900 ft 374 kts 298°
2026-05-04 18:55 32.30272 33.77098 22337 ft 376 kts 298°
2026-05-04 18:56 32.31794 33.74565 22767 ft 379 kts 298°
2026-05-04 18:56 32.33323 33.72018 23193 ft 381 kts 298°
2026-05-04 18:56 32.34860 33.69454 23623 ft 383 kts 298°
2026-05-04 18:56 32.36403 33.66880 23967 ft 385 kts 298°
2026-05-04 18:57 32.37954 33.64290 24312 ft 387 kts 298°
2026-05-04 18:57 32.39512 33.61688 24657 ft 388 kts 298°
2026-05-04 18:57 32.41076 33.59073 24996 ft 390 kts 298°
2026-05-04 18:57 32.42645 33.56447 25325 ft 392 kts 298°
2026-05-04 18:58 32.44223 33.53805 25653 ft 394 kts 298°
2026-05-04 18:58 32.45807 33.51151 25979 ft 395 kts 298°
2026-05-04 18:58 32.47397 33.48484 26295 ft 397 kts 298°
2026-05-04 18:58 32.48994 33.45806 26607 ft 399 kts 298°
2026-05-04 18:59 32.50595 33.43116 26897 ft 400 kts 298°
2026-05-04 18:59 32.52202 33.40415 27183 ft 402 kts 298°
2026-05-04 18:59 32.53819 33.37697 27465 ft 404 kts 298°
2026-05-04 18:59 32.55418 33.35006 27739 ft 406 kts 298°
2026-05-04 19:00 32.57045 33.32265 28014 ft 407 kts 298°
2026-05-04 19:00 32.58678 33.29513 28271 ft 409 kts 298°
2026-05-04 19:00 32.60312 33.26759 28632 ft 408 kts 298°
2026-05-04 19:00 32.61943 33.24009 29076 ft 405 kts 298°
2026-05-04 19:01 32.63560 33.21282 29519 ft 403 kts 298°
2026-05-04 19:01 32.65169 33.18564 29900 ft 402 kts 298°
2026-05-04 19:01 32.66775 33.15847 30223 ft 402 kts 298°
2026-05-04 19:01 32.68381 33.13128 30514 ft 402 kts 298°
2026-05-04 19:02 32.69982 33.10415 30812 ft 401 kts 298°
2026-05-04 19:02 32.71584 33.07700 31102 ft 401 kts 298°
2026-05-04 19:02 32.73184 33.04985 31396 ft 400 kts 298°
2026-05-04 19:02 32.74782 33.02271 31664 ft 401 kts 298°
2026-05-04 19:03 32.76377 32.99561 31936 ft 400 kts 298°
2026-05-04 19:03 32.77949 32.96888 32245 ft 399 kts 298°
2026-05-04 19:03 32.79538 32.94185 32522 ft 399 kts 298°
2026-05-04 19:03 32.81125 32.91484 32784 ft 399 kts 298°
2026-05-04 19:04 32.82710 32.88782 33056 ft 398 kts 298°
2026-05-04 19:04 32.84295 32.86081 33345 ft 397 kts 298°
2026-05-04 19:04 32.85873 32.83388 33615 ft 397 kts 298°
2026-05-04 19:04 32.87452 32.80691 33855 ft 397 kts 298°
2026-05-04 19:05 32.89028 32.77998 34095 ft 397 kts 298°
2026-05-04 19:05 32.90604 32.75303 34296 ft 397 kts 298°
2026-05-04 19:05 32.92182 32.72602 34456 ft 398 kts 298°
2026-05-04 19:05 32.93762 32.69896 34620 ft 398 kts 298°
2026-05-04 19:06 32.95345 32.67182 34805 ft 399 kts 298°
2026-05-04 19:06 32.96925 32.64472 34989 ft 399 kts 298°
2026-05-04 19:06 32.98510 32.61752 35118 ft 400 kts 298°
2026-05-04 19:06 33.00101 32.59018 35233 ft 402 kts 298°
2026-05-04 19:07 33.01697 32.56273 35369 ft 403 kts 298°
2026-05-04 19:07 33.03298 32.53521 35558 ft 403 kts 298°
2026-05-04 19:07 33.04873 32.50811 35745 ft 403 kts 298°
2026-05-04 19:07 33.06467 32.48067 35891 ft 403 kts 298°
2026-05-04 19:08 33.09659 32.42563 36012 ft 403 kts 299°
2026-05-04 19:08 33.12850 32.37052 36024 ft 404 kts 299°
2026-05-04 19:09 33.16044 32.31527 36025 ft 405 kts 299°
2026-05-04 19:09 33.19245 32.25981 36020 ft 406 kts 299°
2026-05-04 19:10 33.22451 32.20419 36018 ft 407 kts 299°
2026-05-04 19:10 33.25659 32.14847 36017 ft 407 kts 299°
2026-05-04 19:11 33.28865 32.09267 36015 ft 407 kts 299°
2026-05-04 19:11 33.32073 32.03676 36014 ft 407 kts 299°
2026-05-04 19:12 33.36872 31.95297 36014 ft 407 kts 299°
2026-05-04 19:13 33.40044 31.89748 36016 ft 406 kts 299°
2026-05-04 19:13 33.43232 31.84164 36011 ft 406 kts 299°
2026-05-04 19:13 33.45022 31.81523 36001 ft 414 kts 310°
2026-05-04 19:14 33.47260 31.79315 36020 ft 420 kts 318°
2026-05-04 19:14 33.52597 31.76193 36018 ft 437 kts 335°
2026-05-04 19:15 33.58454 31.74151 36010 ft 439 kts 336°
2026-05-04 19:15 33.64317 31.72124 36000 ft 438 kts 336°
2026-05-04 19:16 33.70149 31.70031 35993 ft 437 kts 335°
2026-05-04 19:16 33.75975 31.67916 35995 ft 437 kts 335°
2026-05-04 19:17 33.81793 31.65804 35992 ft 437 kts 335°
2026-05-04 19:17 33.87610 31.63682 35991 ft 437 kts 335°
2026-05-04 19:18 33.93425 31.61556 35990 ft 437 kts 336°
2026-05-04 19:18 33.99236 31.59428 35984 ft 437 kts 336°
2026-05-04 19:19 34.05052 31.57296 35985 ft 437 kts 336°
2026-05-04 19:19 34.10869 31.55160 35976 ft 437 kts 336°
2026-05-04 19:20 34.16653 31.53033 35975 ft 437 kts 336°
2026-05-04 19:20 34.22478 31.50889 35970 ft 438 kts 336°
2026-05-04 19:21 34.28309 31.48739 35972 ft 438 kts 336°
2026-05-04 19:21 34.34141 31.46586 35967 ft 438 kts 336°
2026-05-04 19:22 34.39977 31.44428 35965 ft 439 kts 336°
2026-05-04 19:22 34.45817 31.42265 35959 ft 439 kts 337°
2026-05-04 19:23 34.51652 31.40101 35962 ft 439 kts 337°
2026-05-04 19:23 34.57493 31.37932 35944 ft 439 kts 337°
2026-05-04 19:24 34.63336 31.35758 35946 ft 439 kts 337°
2026-05-04 19:24 34.69145 31.33594 35953 ft 439 kts 337°
2026-05-04 19:25 34.74995 31.31412 35951 ft 440 kts 337°
2026-05-04 19:25 34.80844 31.29227 35945 ft 440 kts 338°
2026-05-04 19:26 34.86701 31.27035 35944 ft 440 kts 338°
2026-05-04 19:26 34.92560 31.24840 35938 ft 441 kts 338°
2026-05-04 19:27 34.98419 31.22641 35939 ft 441 kts 338°
2026-05-04 19:27 35.04282 31.20437 35936 ft 441 kts 338°
2026-05-04 19:28 35.10155 31.18227 35934 ft 441 kts 338°
2026-05-04 19:28 35.16025 31.16014 35931 ft 441 kts 339°
2026-05-04 19:29 35.21854 31.13813 35926 ft 441 kts 339°
2026-05-04 19:29 35.27725 31.11594 35924 ft 441 kts 339°
2026-05-04 19:30 35.33580 31.09376 35924 ft 441 kts 339°
2026-05-04 19:30 35.39437 31.07155 35921 ft 440 kts 339°
2026-05-04 19:31 35.45287 31.04933 35921 ft 440 kts 339°
2026-05-04 19:31 35.51141 31.02706 35924 ft 440 kts 339°
2026-05-04 19:32 35.56990 31.00477 35918 ft 440 kts 339°
2026-05-04 19:32 35.62829 30.98249 35919 ft 440 kts 339°
2026-05-04 19:33 35.68676 30.96014 35919 ft 439 kts 339°
2026-05-04 19:33 35.74513 30.93780 35909 ft 439 kts 339°
2026-05-04 19:34 35.80352 30.91542 35921 ft 439 kts 339°
2026-05-04 19:34 35.86158 30.89312 35920 ft 439 kts 339°
2026-05-04 19:35 35.92000 30.87065 35918 ft 439 kts 339°
2026-05-04 19:35 35.97834 30.84819 35918 ft 439 kts 340°
2026-05-04 19:36 36.03700 30.82690 35914 ft 441 kts 345°
2026-05-04 19:36 36.09850 30.82082 35925 ft 446 kts 355°
2026-05-04 19:37 36.16053 30.81971 35917 ft 446 kts 355°
2026-05-04 19:37 36.22251 30.81820 35921 ft 445 kts 355°
2026-05-04 19:38 36.28446 30.81626 35924 ft 445 kts 355°
2026-05-04 19:38 36.34638 30.81424 35932 ft 445 kts 355°
2026-05-04 19:39 36.40781 30.81226 35930 ft 444 kts 355°
2026-05-04 19:39 36.46958 30.81016 35938 ft 444 kts 355°
2026-05-04 19:40 36.53128 30.80795 35942 ft 443 kts 355°
2026-05-04 19:40 36.59283 30.80574 35946 ft 442 kts 355°
2026-05-04 19:41 36.65417 30.80354 35953 ft 440 kts 355°
2026-05-04 19:41 36.71531 30.80136 35958 ft 439 kts 355°
2026-05-04 19:42 36.77628 30.79919 35969 ft 437 kts 355°
2026-05-04 19:42 36.83701 30.79701 35970 ft 436 kts 355°
2026-05-04 19:43 36.89758 30.79484 35969 ft 435 kts 355°
2026-05-04 19:43 36.95806 30.79773 35974 ft 436 kts
2026-05-04 19:44 37.01832 30.80668 35965 ft 436 kts
2026-05-04 19:44 37.06838 30.81440 35963 ft 436 kts
2026-05-04 19:45 37.12858 30.82331 35967 ft 436 kts
2026-05-04 19:45 37.18892 30.83196 35966 ft 437 kts
2026-05-04 19:46 37.24951 30.84056 35976 ft 439 kts
2026-05-04 19:46 37.31030 30.84922 35968 ft 440 kts
2026-05-04 19:47 37.37080 30.85785 35977 ft 441 kts
2026-05-04 19:47 37.43196 30.86658 35973 ft 442 kts
2026-05-04 19:48 37.49317 30.87535 35983 ft 442 kts
2026-05-04 19:48 37.55439 30.88414 35990 ft 443 kts
2026-05-04 19:49 37.61571 30.89294 35983 ft 443 kts
2026-05-04 19:49 37.67683 30.90174 35998 ft 442 kts
2026-05-04 19:50 37.73745 30.91048 35986 ft 440 kts
2026-05-04 19:50 37.79814 30.91925 35990 ft 438 kts
2026-05-04 19:51 37.85862 30.92800 35994 ft 436 kts
2026-05-04 19:51 37.91883 30.93672 35996 ft 435 kts
2026-05-04 19:52 37.97883 30.94542 35993 ft 434 kts
2026-05-04 19:52 38.03868 30.95412 36002 ft 432 kts
2026-05-04 19:53 38.09846 30.96282 36005 ft 432 kts
2026-05-04 19:53 38.15828 30.97154 36009 ft 433 kts
2026-05-04 19:54 38.21817 30.98028 36009 ft 434 kts
2026-05-04 19:54 38.27830 30.98908 36006 ft 436 kts
2026-05-04 19:55 38.33873 30.99793 36008 ft 438 kts
2026-05-04 19:55 38.39935 31.00684 36012 ft 439 kts
2026-05-04 19:56 38.45982 31.01363 36017 ft 438 kts 356°
2026-05-04 19:56 38.51972 31.00189 36008 ft 436 kts 341°
2026-05-04 19:57 38.57657 30.97499 36020 ft 437 kts 338°
2026-05-04 19:57 38.63332 30.94693 36016 ft 437 kts 339°
2026-05-04 19:58 38.69011 30.91919 36031 ft 437 kts 339°
2026-05-04 19:58 38.74689 30.89173 36030 ft 436 kts 339°
2026-05-04 19:59 38.80355 30.86437 36031 ft 435 kts 339°
2026-05-04 19:59 38.86019 30.83699 36040 ft 434 kts 339°
2026-05-04 20:00 38.91665 30.80965 36041 ft 433 kts 339°
2026-05-04 20:00 38.97292 30.78233 36051 ft 432 kts 339°
2026-05-04 20:01 39.02911 30.75502 36036 ft 431 kts 340°
2026-05-04 20:01 39.08519 30.72771 36046 ft 431 kts 340°
2026-05-04 20:02 39.14116 30.70040 36051 ft 430 kts 340°
2026-05-04 20:02 39.19673 30.67325 36045 ft 429 kts 340°
2026-05-04 20:03 39.25260 30.64590 36042 ft 429 kts 340°
2026-05-04 20:03 39.30846 30.61851 36052 ft 429 kts 340°
2026-05-04 20:04 39.36432 30.59108 36048 ft 430 kts 340°
2026-05-04 20:04 39.42020 30.56358 36058 ft 430 kts 340°
2026-05-04 20:05 39.47616 30.53600 36044 ft 430 kts 340°
2026-05-04 20:05 39.53213 30.50837 36036 ft 431 kts 340°
2026-05-04 20:06 39.58760 30.47868 36022 ft 433 kts 337°
2026-05-04 20:06 39.64285 30.44613 36024 ft 440 kts 337°
2026-05-04 20:07 39.69884 30.41295 36011 ft 444 kts 337°
2026-05-04 20:07 39.75494 30.37996 36000 ft 446 kts 337°
2026-05-04 20:08 39.81165 30.34676 36004 ft 447 kts 338°
2026-05-04 20:08 39.86833 30.31356 36007 ft 446 kts 338°
2026-05-04 20:09 39.92489 30.28037 36024 ft 445 kts 338°
2026-05-04 20:09 39.98135 30.24717 36038 ft 445 kts 338°
2026-05-04 20:10 40.03767 30.21399 36058 ft 443 kts 338°
2026-05-04 20:10 40.09382 30.18086 36058 ft 442 kts 338°
2026-05-04 20:11 40.14982 30.14774 36047 ft 440 kts 338°
2026-05-04 20:11 40.20554 30.11474 36049 ft 439 kts 338°
2026-05-04 20:12 40.26111 30.08177 36052 ft 438 kts 339°
2026-05-04 20:12 40.31618 30.04903 36056 ft 437 kts 339°
2026-05-04 20:13 40.37145 30.01611 36054 ft 436 kts 339°
2026-05-04 20:13 40.42673 29.98314 36049 ft 435 kts 339°
2026-05-04 20:14 40.48184 29.95020 36050 ft 435 kts 339°
2026-05-04 20:14 40.53690 29.91723 36043 ft 434 kts 339°
2026-05-04 20:15 40.59190 29.88424 36044 ft 434 kts 339°
2026-05-04 20:15 40.64653 29.85141 36046 ft 435 kts 339°
2026-05-04 20:16 40.70155 29.81829 36046 ft 435 kts 339°
2026-05-04 20:16 40.75655 29.78511 36041 ft 435 kts 338°
2026-05-04 20:17 40.81147 29.75193 36041 ft 434 kts 338°
2026-05-04 20:17 40.86639 29.71868 36044 ft 435 kts 338°
2026-05-04 20:18 40.92139 29.68533 36045 ft 434 kts 338°
2026-05-04 20:18 40.97640 29.65191 36041 ft 435 kts 338°
2026-05-04 20:19 41.03142 29.61841 36037 ft 435 kts 338°
2026-05-04 20:19 41.08644 29.58486 36032 ft 435 kts 338°
2026-05-04 20:20 41.14104 29.55150 36031 ft 435 kts 339°
2026-05-04 20:20 41.19612 29.51807 36024 ft 434 kts 341°
2026-05-04 20:21 41.25340 29.49431 36022 ft 431 kts 347°
2026-05-04 20:21 41.34022 29.46230 36026 ft 431 kts 347°
2026-05-04 20:22 41.39808 29.44056 36024 ft 432 kts 347°
2026-05-04 20:22 41.45591 29.41859 36021 ft 432 kts 347°
2026-05-04 20:23 41.51368 29.39656 36021 ft 432 kts 347°
2026-05-04 20:23 41.57153 29.37445 36022 ft 432 kts 347°
2026-05-04 20:24 41.62898 29.35246 36020 ft 433 kts 347°
2026-05-04 20:24 41.68685 29.33028 36023 ft 433 kts 347°
2026-05-04 20:25 41.74475 29.30804 36022 ft 433 kts 347°
2026-05-04 20:25 41.80265 29.28576 36023 ft 433 kts 347°
2026-05-04 20:26 41.86054 29.26344 36025 ft 433 kts 347°
2026-05-04 20:26 41.91847 29.24106 36025 ft 433 kts 346°
2026-05-04 20:27 41.97644 29.21862 36025 ft 433 kts 346°
2026-05-04 20:27 42.03436 29.19616 36027 ft 433 kts 346°
2026-05-04 20:28 42.09189 29.17381 36025 ft 433 kts 346°
2026-05-04 20:28 42.14941 29.14930 36020 ft 436 kts 339°
2026-05-04 20:29 42.20168 29.10698 36022 ft 443 kts 323°
2026-05-04 20:29 42.24755 29.05116 36026 ft 445 kts 321°
2026-05-04 20:30 42.29299 28.99434 36028 ft 443 kts 321°
2026-05-04 20:30 42.33781 28.93869 36023 ft 434 kts 321°
2026-05-04 20:31 42.38224 28.88388 36034 ft 431 kts 321°
2026-05-04 20:31 42.42644 28.82940 36033 ft 429 kts 321°
2026-05-04 20:32 42.47055 28.77492 36044 ft 429 kts 321°
2026-05-04 20:32 42.51462 28.72037 36044 ft 429 kts 321°
2026-05-04 20:33 42.55846 28.66597 36047 ft 431 kts 321°
2026-05-04 20:33 42.60273 28.61093 36049 ft 432 kts 321°
2026-05-04 20:34 42.64716 28.55558 36047 ft 434 kts 321°
2026-05-04 20:34 42.69176 28.49990 36051 ft 436 kts 320°
2026-05-04 20:35 42.73643 28.44402 36048 ft 437 kts 320°
2026-05-04 20:35 42.78124 28.38783 36056 ft 439 kts 320°
2026-05-04 20:36 42.82636 28.33117 36063 ft 444 kts 320°
2026-05-04 20:36 42.86418 28.28355 36060 ft 446 kts 320°
2026-05-04 20:37 42.90987 28.22594 36052 ft 448 kts 320°
2026-05-04 20:37 42.96299 28.15877 36065 ft 448 kts 320°
2026-05-04 20:38 43.00122 28.11029 36064 ft 447 kts 320°
2026-05-04 20:38 43.04679 28.05237 36066 ft 446 kts 320°
2026-05-04 20:39 43.09214 27.99462 36070 ft 445 kts 319°
2026-05-04 20:39 43.13706 27.93729 36073 ft 444 kts 319°
2026-05-04 20:40 43.18223 27.87954 36079 ft 443 kts 319°
2026-05-04 20:40 43.22727 27.82183 36069 ft 443 kts 319°
2026-05-04 20:41 43.27370 27.76647 36077 ft 441 kts 322°
2026-05-04 20:41 43.32105 27.71281 36080 ft 441 kts 322°
2026-05-04 20:42 43.36825 27.65896 36072 ft 441 kts 322°
2026-05-04 20:42 43.41523 27.60480 36071 ft 440 kts 321°
2026-05-04 20:43 43.46174 27.55090 36070 ft 440 kts 321°
2026-05-04 20:43 43.50855 27.49654 36069 ft 440 kts 321°
2026-05-04 20:44 43.55529 27.44216 36070 ft 440 kts 321°
2026-05-04 20:44 43.60203 27.38766 36070 ft 440 kts 321°
2026-05-04 20:45 43.64878 27.33306 36066 ft 440 kts 321°
2026-05-04 20:45 43.69569 27.27874 36062 ft 439 kts 322°
2026-05-04 20:46 43.74393 27.22689 36065 ft 439 kts 324°
2026-05-04 20:46 43.79249 27.17554 36061 ft 439 kts 323°
2026-05-04 20:47 43.84060 27.12417 36056 ft 439 kts 323°
2026-05-04 20:47 43.88894 27.07211 36054 ft 440 kts 323°
2026-05-04 20:48 43.93717 27.01994 36051 ft 440 kts 323°
2026-05-04 20:48 43.98546 26.96756 36046 ft 441 kts 323°
2026-05-04 20:49 44.03376 26.91508 36050 ft 441 kts 323°
2026-05-04 20:49 44.08205 26.86250 36045 ft 441 kts 323°
2026-05-04 20:50 44.13037 26.80977 36043 ft 442 kts 323°
2026-05-04 20:50 44.17878 26.75684 36056 ft 443 kts 323°
2026-05-04 20:51 44.20306 26.73025 36207 ft 444 kts 322°
2026-05-04 20:51 44.22733 26.70364 36446 ft 443 kts 322°
2026-05-04 20:51 44.25148 26.67713 36689 ft 441 kts 323°
2026-05-04 20:51 44.27562 26.65060 36909 ft 441 kts 323°
2026-05-04 20:52 44.29969 26.62413 37097 ft 441 kts 323°
2026-05-04 20:52 44.32374 26.59764 37277 ft 441 kts 323°
2026-05-04 20:52 44.34787 26.57105 37461 ft 441 kts 323°
2026-05-04 20:52 44.37195 26.54447 37635 ft 441 kts 323°
2026-05-04 20:53 44.39576 26.51817 37808 ft 441 kts 323°
2026-05-04 20:53 44.41986 26.49152 37984 ft 441 kts 323°
2026-05-04 20:53 44.46802 26.43818 38033 ft 443 kts 323°
2026-05-04 20:54 44.51635 26.38453 38044 ft 443 kts 322°
2026-05-04 20:54 44.56460 26.33085 38044 ft 443 kts 322°
2026-05-04 20:55 44.61282 26.27709 38044 ft 443 kts 322°
2026-05-04 20:55 44.66101 26.22324 38049 ft 443 kts 322°
2026-05-04 20:56 44.70919 26.16929 38045 ft 443 kts 322°
2026-05-04 20:56 44.75736 26.11523 38045 ft 443 kts 322°
2026-05-04 20:57 44.80548 26.06111 38048 ft 443 kts 322°
2026-05-04 20:57 44.85326 26.00725 38050 ft 443 kts 322°
2026-05-04 20:58 44.90134 25.95293 38061 ft 443 kts 322°
2026-05-04 20:58 44.94944 25.89847 38065 ft 443 kts 322°
2026-05-04 20:59 44.99746 25.84398 38076 ft 443 kts 322°
2026-05-04 20:59 45.04551 25.78934 38076 ft 443 kts 322°
2026-05-04 21:00 45.09355 25.73459 38089 ft 443 kts 322°
2026-05-04 21:00 45.14157 25.67973 38083 ft 443 kts 322°
2026-05-04 21:01 45.18958 25.62476 38093 ft 443 kts 322°
2026-05-04 21:01 45.23749 25.56979 38118 ft 443 kts 322°
2026-05-04 21:02 45.28540 25.51470 38098 ft 443 kts 322°
2026-05-04 21:02 45.33326 25.45953 38090 ft 443 kts 322°